Regional Weather Roundup
Issued by NWS

Home | Current Version | Previous Version | Text Only | Print | Product List | Glossary On
Versions: 1 2 3 4 5 6 7 8 9 10 11 12 13 14 15 16 17 18 19 20 21 22 23 24 25 26 27 28 29 30 31 32 33 34 35 36 37 38 39 40 41 42 43 44 45 46 47 48 49 50
000
ASUS43 KDTX 100301
RWRMI
MICHIGAN HOURLY REGIONAL WEATHER ROUNDUP
NATIONAL WEATHER SERVICE DETROIT/PONTIAC MI
1000 PM EST FRI DEC 09 2016

NOTE: "FAIR" INDICATES FEW OR NO CLOUDS BELOW 12,000 FEET WITH NO
SIGNIFICANT WEATHER AND/OR OBSTRUCTION TO VISIBILITY.

MIZ047>049-052>055-059>063-066>070-074>076-081>083-100400-
SOUTHEAST LOWER MICHIGAN

CITY           SKY/WX    TMP DP  RH WIND       PRES   REMARKS
ADRIAN         CLOUDY    24  19  81 W8        30.44F WCI  15
ALMA           CLOUDY    25  15  66 W7        30.39S WCI  17
ANN ARBOR      CLOUDY    24  19  81 SW10      30.41S WCI  14
BAD AXE        CLOUDY    26  19  74 W7        30.33F WCI  18
CARO           CLOUDY    25  18  76 W8        30.36S WCI  16
DETROIT CITY   CLOUDY    27  18  69 W10G20    30.41S WCI  17
DETROIT        CLOUDY    27  18  69 W13       30.42F WCI  16
FLINT          CLOUDY    24  16  71 W6        30.38F WCI  17
GROSSE ILE     CLOUDY    27  19  72 W8        30.41F WCI  19
HILLSDALE      LGT SNOW  23  19  86 SW7       30.40S WCI  15
HOWELL         CLOUDY    24  19  82 W9        30.39S WCI  14

CITY           SKY/WX    TMP DP  RH WIND       PRES   REMARKS
JACKSON        FLURRIES  23  19  85 W8        30.40F WCI  14
LAMBERTVILLE   CLOUDY    28  20  74 W9        30.44F WCI  19
LANSING        CLOUDY    23  17  78 W12       30.40F WCI  12
LAPEER         NOT AVBL
MASON          LGT SNOW  24  21  91 W5        30.40F WCI  18
MONROE         FLURRIES  27  21  79 W12       30.42F WCI  16
MT. CLEMENS    CLOUDY    27  17  65 W15       30.36S WCI  15
PONTIAC        CLOUDY    24  16  71 W9        30.37S WCI  14
PORT HOPE        N/A     26  23  88 CALM      30.30
PORT HURON     CLOUDY    27  16  63 W3        30.37S
TRI CITIES     CLOUDY    24  18  77 W12G18    30.38S WCI  13
MIDLAND        CLOUDY    25  16  67 W6        30.37S WCI  18
TROY           CLOUDY    27  15  59 W10       30.41S WCI  18
SAGINAW HB     CLOUDY    27  18  69 W13       30.37S WCI  16
$$
MIZ043>046-050>051-056>058-064>065-071>073-077>080-100400-
SOUTHWEST LOWER MICHIGAN

CITY           SKY/WX    TMP DP  RH WIND       PRES   REMARKS
BATTLE CREEK   FLURRIES  23  20  88 SW9       30.41F WCI  13
BENTON HARBOR  CLOUDY    28  10  46 NW12      30.46S WCI  18
BIG RAPIDS     CLOUDY    22  17  79 W8        30.36S WCI  13
COLDWATER      LGT SNOW  23  20  89 SW10      30.43S WCI  12
FREMONT        FLURRIES  23  14  68 NW8       30.39F WCI  14
HOLLAND        CLOUDY    27  13  55 NW10      30.43S WCI  17
GRAND RAPIDS   LGT SNOW  22  19  89 SW7       30.41F FOG     WCI  13
IONIA          CLOUDY    22  18  84 W8        30.39F WCI  13
KALAMAZOO      LGT SNOW  24  18  77 SW6       30.43S WCI  17
LUDINGTON      CLOUDY    25  13  59 W9        30.39S WCI  16
MARSHALL       LGT SNOW  23  21  91 SW8       30.41F WCI  14
MOUNT PLEASANT CLOUDY    22  16  79 W3        30.37S
MUSKEGON       CLOUDY    26  13  57 W14       30.42S WCI  14
SOUTH HAVEN    CLOUDY    27  14  57 W10G21    30.44S WCI  18
$$
MIZ016>042-100400-
NORTHERN LOWER MICHIGAN

CITY           SKY/WX    TMP DP  RH WIND       PRES   REMARKS
ALPENA         CLOUDY    20  16  84 CALM      30.32F
BEAVER ISLAND  MOCLDY    23  12  62 NW7G17    30.33S WCI  15
BELLAIRE       LGT SNOW  24  22  93 CALM      30.34S
CADILLAC       CLOUDY    20  17  87 W7        30.30S WCI  11
CHARLEVOIX     CLOUDY    26  17  66 NW12G23   30.34S WCI  16
FRANKFORT      CLOUDY    26  15  64 W10G20    30.37R WCI  16
GAYLORD        LGT SNOW  22  18  85 NW3       30.26F FOG
GRAYLING       MOCLDY    21  19  91 SW7       30.30S WCI  12
HARBOR SPRINGS LGT SNOW  21  19  90 E5        30.32S WCI  15
HOUGHTON LAKE  CLOUDY    21  17  84 W10       30.31F WCI  10
MANISTEE       FLURRIES  25  14  63 W15G21    30.37S WCI  13
OSCODA         CLOUDY    24  18  77 MISG      30.31F
PELLSTON       LGT SNOW  21  17  84 CALM      30.33S VSB 3/4
ROGERS CITY    FLURRIES  22  18  86 CALM      30.33S
TRAVERSE CITY  FLURRIES  23  18  81 SW7       30.34F WCI  15
$$
MIZ007>008-015-100400-
EASTERN UPPER MICHIGAN

CITY           SKY/WX    TMP DP  RH WIND       PRES   REMARKS
KINROSS        FLURRIES  15  13  91 SE3       30.31S
MACKINAC ISLAN CLOUDY    21  14  73 N5        30.30F WCI  14
NEWBERRY       LGT SNOW  15  15  97 SW5       30.30F WCI   8
S. S. MARIE    LGT SNOW  18  14  84 E5        30.31F FOG     WCI  11
MUNISING         N/A     17   9  70 W10G18    30.34F WCI   5
$$
MIZ004>006-011>014-085-100400-
CENTRAL UPPER MICHIGAN

CITY           SKY/WX    TMP DP  RH WIND       PRES   REMARKS
MANISTIQUE     MOCLDY    17  12  82 W12G17    30.34S WCI   4
ESCANABA       CLOUDY    19   9  65 NW9       30.38S WCI   8
MENOMINEE      MOCLDY    18   5  57 W5        30.42F WCI  11
SAWYER-GWINN   CLEAR     12   5  73 W12G17    30.33F WCI  -2
$$
MIZ001>003-009>011-084-100400-
WESTERN UPPER MICHIGAN

CITY           SKY/WX    TMP DP  RH WIND       PRES   REMARKS
IRON MOUNTAIN  CLEAR     12   2  64 W3        30.35F
HOUGHTON       LGT SNOW  15  10  80 W16       30.30S WCI  -1
COPPER HARBOR    N/A     20  11  68 CALM      30.33S
IRONWOOD       FLURRIES  10   3  73 W12       30.39F WCI  -5
$$

ABBREVIATIONS USED IN REMARKS
   TC - TEMPERATURE IN CELSIUS
  WCI - WIND CHILL INDEX
   HX - HEAT INDEX
  VSB - VISIBILITY




USA.gov is the U.S. government's official web portal to all federal, state and local government web resources and services.